Location: Laas
(43.4693°N, 0.3073°E)
Time: 23:25:57
(UTC+00:00)

N. Korean satellite - Visible Passes

Search period start: 22 January 2021 00:00
Search period end: 01 February 2021 00:00
Orbit: 452 x 502 km, 97.2° (Epoch: 22 January)

Date Brightness Start Highest point End Pass type
(mag) Time Alt. Az. Time Alt. Az. Time Alt. Az.
22 Jan 9.5 04:34:08 10° NE 04:36:19 16° E 04:38:29 10° SE visible
22 Jan 7.2 06:06:38 10° N 06:09:44 30° WNW 06:12:45 10° SW visible
23 Jan 6.3 05:39:47 10° N 05:43:15 68° WNW 05:46:39 10° SSW visible
23 Jan 10.2 17:51:13 10° WSW 17:52:28 11° W 17:53:42 10° WNW visible
24 Jan 7.3 05:13:16 10° NNE 05:16:40 50° E 05:19:59 10° S visible
24 Jan 8.5 06:48:45 10° NW 06:49:30 11° WNW 06:50:16 10° WNW visible
25 Jan 8.9 04:47:10 10° NE 04:49:58 23° E 04:52:44 10° SSE visible
25 Jan 7.7 06:20:32 10° NNW 06:23:11 21° WNW 06:25:48 10° WSW visible
26 Jan 9.9 04:22:14 10° ENE 04:23:10 11° E 04:24:06 10° ESE visible
26 Jan 6.7 05:53:26 10° N 05:56:45 43° WNW 06:00:00 10° SW visible
27 Jan 6.4 05:26:45 10° NNE 05:30:12 80° ESE 05:33:37 10° S visible
27 Jan 9.8 17:37:01 10° SW 17:39:20 16° W 17:41:38 10° NW visible
28 Jan 8.1 05:00:24 10° NNE 05:03:33 33° E 05:06:40 10° SSE visible
28 Jan 8.1 06:34:37 10° NNW 06:36:34 15° WNW 06:38:32 10° W visible
29 Jan 9.5 04:34:37 10° NE 04:36:48 16° E 04:38:58 10° SE visible
29 Jan 7.3 06:07:10 10° N 06:10:11 29° WNW 06:13:10 10° SW visible
30 Jan 6.3 05:40:17 10° N 05:43:41 66° WNW 05:47:04 10° SSW visible
30 Jan 10.3 17:52:00 10° WSW 17:52:58 11° W 17:53:55 10° WNW visible
31 Jan 7.2 05:13:43 10° NNE 05:17:05 51° E 05:20:24 10° S visible
